Cloud_Cover
100 98 100 100 100 100 100 100 99 22 0 0 0 0 0 0 0 0 0 0 0 0 0 0 0 0 0 0 5 77 83 87 57 100 96 100 63 88 96 52 39 92 100
100 100 100 100 100 100 42 61 36 5 4 0 0 0 0 0 0 0 0 0 0 0 0 1 0 0 0 0 2 46 44 62 40 71 25 100 100 55 62 37 1 14 27
100 100 100 100 100 99 92 100 100 5 3 0 0 0 0 0 0 0 0 0 0 0 0 0 0 0 0 0 1 6 47 67 81 86 92 94 99 100 74 5 5 0 6
100 100 100 100 100 100 100 100 100 28 42 95 0 0 0 0 0 0 0 0 0 0 0 0 0 0 0 0 9 18 39 54 82 100 100 100 100 100 100 23 5 0 0
100 100 100 100 90 100 100 100 100 100 100 98 0 0 0 0 0 0 0 0 0 0 0 0 0 0 0 0 0 12 40 58 95 100 100 100 100 98 72 72 8 0 0
100 100 100 100 46 59 100 6 100 100 100 100 0 0 0 0 0 0 0 0 0 0 0 0 0 10 16 21 20 7 1 6 52 100 100 81 6 44 52 100 41 65 78
100 100 100 100 100 100 100 100 93 82 42 59 0 0 0 0 0 0 0 0 0 0 0 0 0 0 16 3 30 39 36 23 66 59 100 81 98 90 99 97 98 80 87
100 100 100 100 100 100 100 100 100 96 68 58 71 25 32 0 0 0 0 0 0 0 0 0 0 0 0 3 5 25 5 0 9 18 23 100 96 97 61 97 100 100 100
100 100 99 100 100 100 100 100 98 66 81 19 96 99 80 16 1 0 13 0 0 0 0 0 0 0 0 1 0 2 10 3 6 72 76 86 96 100 100 89 100 100 100
100 100 100 22 28 17 35 45 71 100 100 91 77 62 98 25 0 0 14 0 0 0 0 0 0 3 0 0 0 0 5 36 79 64 100 100 100 100 97 98 100 100 100
100 100 83 49 98 90 55 37 41 49 14 91 72 24 4 0 0 0 3 0 0 0 0 0 0 0 14 21 25 1 78 100 100 100 100 100 100 100 100 93 48 100 100
100 100 60 90 100 100 100 100 100 63 98 89 81 21 33 16 48 10 6 44 2 0 0 5 5 0 3 17 52 7 94 100 100 100 100 100 100 100 100 100 100 100 100
100 100 100 100 99 88 100 100 100 100 93 75 44 100 96 87 60 94 38 48 35 52 7 4 0 5 74 70 72 36 71 100 100 100 100 100 100 100 100 100 100 100 100
80 100 70 100 100 100 100 100 100 100 100 89 90 90 69 87 97 100 100 100 90 52 72 13 20 75 100 86 99 95 100 100 99 100 100 100 100 100 100 100 100 100 100
100 100 100 100 92 64 96 100 100 99 100 100 100 84 54 13 99 79 100 22 4 27 45 87 99 100 100 100 100 100 100 100 100 100 100 100 100 100 100 89 100 100 100
60 81 99 100 89 79 77 45 36 80 100 100 100 100 100 100 100 100 100 100 100 100 100 98 100 100 100 100 100 100 100 100 100 99 100 100 100 100 70 78 100 98 100
58 32 59 90 94 100 100 89 100 40 95 100 100 100 100 100 100 100 100 100 100 100 100 100 93 58 61 68 48 93 100 100 100 100 100 100 100 100 100 100 100 100 100
99 70 100 97 51 85 100 100 100 100 100 100 100 99 100 100 100 100 100 100 100 100 100 100 80 55 37 54 49 100 96 91 100 99 100 100 100 100 100 100 100 100 100
100 100 99 95 100 80 49 54 95 90 98 90 99 69 68 100 100 100 100 100 100 100 100 100 100 100 100 80 100 100 82 69 100 100 100 100 100 100 100 100 100 100 100
100 100 100 100 100 100 89 37 86 98 85 83 100 100 100 100 100 100 100 100 100 100 100 100 100 100 100 100 100 100 100 99 99 100 100 100 100 100 100 100 100 100 82
31 5 5 5 5 5 5 15 6 4 26 87 95 81 97 100 100 100 100 100 100 100 100 100 100 100 100 100 100 100 100 100 100 100 100 100 100 100 100 100 100 100 100
94 5 0 0 0 2 0 0 2 1 0 1 24 27 38 88 100 100 100 100 100 100 100 100 100 100 100 100 100 100 100 100 100 100 100 100 100 100 100 100 94 100 100
52 5 3 1 0 0 0 0 0 2 12 0 0 0 0 22 55 85 100 100 100 100 100 100 100 100 100 100 100 100 100 100 100 100 100 100 100 100 100 100 100 95 100
82 5 1 5 5 0 0 0 0 3 5 4 3 0 0 0 0 0 26 100 100 100 100 100 100 100 100 100 100 100 100 100 100 100 96 100 100 100 100 100 100 100 100
2 0 4 0 0 0 0 0 0 0 0 0 0 0 0 0 0 0 0 34 100 100 100 100 100 100 100 100 100 100 100 100 100 100 100 100 100 100 100 100 100 100 100
26 0 2 5 5 5 3 4 0 0 0 2 0 0 0 0 0 0 0 0 19 69 100 100 100 100 100 100 100 100 100 100 100 100 100 100 100 100 100 100 100 100 100